Regional Weather Roundup
Issued by NWS Boston, MA

Home | Current Version | Previous Version | Text Only | Print | Product List | Glossary On
Versions: 1 2 3 4 5 6 7 8 9 10 11 12 13 14 15 16 17 18 19 20 21 22 23 24 25 26 27 28 29 30 31 32 33 34 35 36 37 38 39 40 41 42 43 44 45 46 47 48 49 50
000
ASUS41 KBOX 280810
RWRBOX

REGIONAL WEATHER ROUNDUP
NATIONAL WEATHER SERVICE TAUNTON MA
300 AM EST TUE FEB 28 2017

NOTE:  "FAIR" INDICATES FEW OR NO CLOUDS BELOW 12,000 FEET WITH NO
SIGNIFICANT WEATHER AND/OR OBSTRUCTIONS TO VISIBILITY.

MAZALL-280900-
EASTERN MASSACHUSETTS

CITY           SKY/WX    TMP DP  RH WIND       PRES   REMARKS
BOSTON         MOCLDY    40  33  76 SW9       30.39R
BEVERLY        MOCLDY    36  30  79 SW3       30.38R
LAWRENCE       CLEAR     35  28  75 SW6       30.39R WCI  30
BEDFORD        CLOUDY    36  26  67 CALM      30.37R
BLUE HILL        N/A     37  31  78 SW12      30.36S WCI  29
NORWOOD        CLOUDY    32  30  92 CALM      30.40R
MARSHFIELD     CLEAR     39  36  87 W5        30.40R
PLYMOUTH       MOCLDY    35  33  92 CALM      30.40S
TAUNTON        MOCLDY    34  31  88 S3        30.40S
NEW BEDFORD    CLOUDY    34  32  92 S5        30.40S WCI  30
$$

MAZALL-280900-
CAPE COD AND THE ISLANDS

CITY           SKY/WX    TMP DP  RH WIND       PRES   REMARKS
FALMOUTH       CLOUDY    39  37  93 MISG      30.42S
HYANNIS        MOCLDY    39  38  96 SW7       30.40S
CHATHAM        PTCLDY    42  39  89 W6        30.42S
PROVINCETOWN   CLEAR     39  37  92 SW10      30.41
NANTUCKET      CLOUDY    42  38  85 SW8       30.43R
MARTHAS VNYRD    N/A    N/A N/A N/A MISG      30.42R
$$

MAZALL-280900-
CENTRAL AND WESTERN MASSACHUSETTS

CITY           SKY/WX    TMP DP  RH WIND       PRES   REMARKS
WORCESTER      MOCLDY    36  25  64 W8        30.35S WCI  30
FITCHBURG      CLOUDY    35  28  75 CALM      30.38R
ORANGE         CLOUDY    28  26  92 CALM      30.37S
SPRINGFIELD    CLOUDY    35  30  83 CALM      30.36S
WESTFIELD      CLOUDY    39  30  70 CALM      30.37S
NORTH ADAMS    CLOUDY    30  24  78 CALM      30.37R
PITTSFIELD     CLOUDY    33  24  69 CALM      30.33S
$$

RIZALL-280900-
RHODE ISLAND

CITY           SKY/WX    TMP DP  RH WIND       PRES   REMARKS
PROVIDENCE     CLOUDY    37  33  85 SW3       30.41R
NEWPORT        PTCLDY    39  37  92 S7        30.41R
BLOCK ISLAND   CLOUDY    43  39  86 SW9       30.42S
SMITHFIELD     CLOUDY    35  33  92 VRB3      30.39S
WESTERLY       CLOUDY    36  32  85 CALM      30.41F
$$

CTZALL-280900-
CONNECTICUT

CITY           SKY/WX    TMP DP  RH WIND       PRES   REMARKS
BRADLEY INTL   CLOUDY    38  32  79 S5        30.38S
HARTFORD       CLOUDY    40  33  76 S3        30.39S
BRIDGEPORT     CLOUDY    40  34  79 NE5       30.38F
DANBURY        CLOUDY    35  30  82 CALM      30.37F
GROTON         CLOUDY    37  35  92 N5        30.39F
NEW HAVEN      CLOUDY    39  35  86 CALM      30.38F
CHESTER        MOCLDY    39  36  87 CALM      30.38F
MERIDEN        CLOUDY    35  32  88 CALM      30.38F
WILLIMANTIC    CLOUDY    33  30  88 CALM      30.41R
OXFORD         CLOUDY    39  28  65 CALM      30.37F
$$

MEZ002-015-021-024-NHZ003-005-008-011-012-014-VTZ005-008-280900-
NORTHERN NEW ENGLAND

CITY           SKY/WX    TMP DP  RH WIND       PRES   REMARKS
PORTLAND ME    CLEAR     37  20  50 W3        30.34S
BANGOR ME      PTCLDY    26  23  88 CALM      30.33S
CONCORD NH     CLEAR     27  20  75 E3        30.36R
MANCHESTER NH  PTCLDY    34  23  64 SE3       30.35R
NASHUA NH      PTCLDY    30  26  85 CALM      30.37S
PORTSMOUTH NH  PTCLDY    36  24  59 SW3       30.35R
JAFFREY NH     MOCLDY    27  23  85 CALM      30.35R
KEENE NH       MOCLDY    26  23  88 CALM      30.38R
BURLINGTON VT  PTCLDY    30  25  81 CALM      30.33S
MT. WASHINGTON SNOWSHWR  16  16 100 W59         N/A  VSB 0   WCI -10
$$

NYZ052-076-280900-
EASTERN NEW YORK

CITY           SKY/WX    TMP DP  RH WIND       PRES   REMARKS
ALBANY         CLOUDY    33  23  66 CALM      30.37R
NEW YORK CITY  CLOUDY    49  33  54 SE6       30.36F
$$

ANZALL-280900-
MARINE OBSERVATIONS

STATION/POSITION TIME  TEMP    WIND        PRES    VSBY  WAVE
                       AIR SEA DIR/SP/G                  HT/PER
                 (UTC) (F)     (DEG/KT/KT) (MB)    (MI)  (FT/S)
BOSTON BUOY      0650   42 42  210/ 12/ 14 1027.8          2/ 3
BUZZARDS BAY     0700   42     230/  8/  8 1030.3R
NANTUCKET SOUND  0650   43 40  240/ 10/ 12 1029.8          1/ 3
MASS BAY-STELLWA 0704   42 41  230/ 12/ 14 1027.3R         3/ 4
ISLE OF SHOALS   0700   40     220/ 15/ 16 1027.6R
S OF BLOCK IS    0755      43                N/A           4/ 6
$$

......................KEY.........................
  SKY/WX - SKY CONDITION/PRESENT WEATHER
  TMP    - TEMPERATURE IN FAHRENHEIT
  DWPT   - DEWPOINT IN FAHRENHEIT
  RH     - RELATIVE HUMIDITY IN PERCENT
  WIND   - DIRECTION AND SPEED IN MPH
  PRES   - MEAN SEA LEVEL PRESSURE IN INCHES OF HG
  WCI    - WIND CHILL INDEX
  VSB    - VISIBILITY IN MILES
  HX     - HEAT INDEX
  TC     - TEMPERATURE IN CELSIUS
  VRB    - VARIABLE WIND DIRECTION
  N/A    - NOT AVAILABLE



USA.gov is the U.S. government's official web portal to all federal, state and local government web resources and services.